Memphis, TN

1:47 PM CST on January 21, 2017 (GMT -0600)
Memphis International Airport

Weather History for KMEM - July, 2013

Change the Weather History Date:

Wednesday, July 24, 2013

  Actual Average Record
Temperature  
Mean Temperature 81 °F 83 °F  
Max Temperature 86 °F 92 °F 102 °F (1934)
Min Temperature 75 °F 74 °F 58 °F (1947)
Degree Days  
Heating Degree Days 0 0  
Month to date heating degree days 0 0  
Since 1 June heating degree days 0 0  
Since 1 July heating degree days 0 0  
Cooling Degree Days 16 18  
Month to date cooling degree days 390 428  
Year to date cooling degree days 1125 1187  
Since 1 June cooling degree days 840 866  
Growing Degree Days 30 (Base 50)    
Moisture  
Dew Point 71 °F    
Average Humidity 74    
Maximum Humidity 87    
Minimum Humidity 61    
Precipitation  
Precipitation T in 0.17 in 2.14 in (1899)
Month to date precipitation 3.39 3.57  
Year to date precipitation 43.44 31.48  
Snow  
Snow 0.00 in 0.00 in - ()
Month to date snowfall 0.0 0.0  
Since 1 June snowfall 0.0 0.0  
Since 1 July snowfall 0.0 0.0  
Snow Depth 0.00 in    
Sea Level Pressure  
Sea Level Pressure 29.90 in    
Wind  
Wind Speed 7 mph (NNW)    
Max Wind Speed 15 mph    
Max Gust Speed 20 mph    
Visibility 10 miles    
Events Rain    
T = Trace of Precipitation, MM = Missing Value Source: NWS Daily Summary

Daily Weather History Graph

Daily Weather History Graph

Search for Another Location

Airport or City:

Trip Planner

Search our weather history database for the weather conditions in past years. The results will help you decide how hot, cold, wet, or windy it might be!

Date:

Astronomy

Jul. 24, 2013 Rise Set
Actual Time 6:03 AM CDT 8:08 PM CDT
Civil Twilight 5:35 AM CDT 8:37 PM CDT
Nautical Twilight 5:00 AM CDT 9:11 PM CDT
Astronomical Twilight 4:23 AM CDT 9:48 PM CDT
Moon 9:23 PM CDT (7/24) 8:16 AM CDT (7/24)
Length of Visible Light 15h 02m
Length of Day
14h 05m
Waning Gibbous, 94% of the Moon is Illuminated
Jul 24
Waning Gibbous
Jul 29
Last Quarter
Aug 6
New
Aug 14
First Quarter
Aug 20
Full

Hourly Weather History & Observations

Time (CDT) Temp. Heat Index Dew Point Humidity Pressure Visibility Wind Dir Wind Speed Gust Speed Precip Events Conditions
12:54 AM 79.0 °F - 73.9 °F 84% 29.87 in 10.0 mi Calm Calm - N/A   Overcast
1:54 AM 78.1 °F - 73.9 °F 87% 29.86 in 10.0 mi West 3.5 mph - N/A   Overcast
2:54 AM 78.1 °F - 73.9 °F 87% 29.86 in 10.0 mi NNW 3.5 mph - N/A   Overcast
3:54 AM 78.1 °F - 73.9 °F 87% 29.86 in 10.0 mi NNW 5.8 mph - N/A   Overcast
4:54 AM 78.1 °F - 73.0 °F 84% 29.86 in 10.0 mi North 4.6 mph - N/A   Overcast
5:54 AM 77.0 °F - 70.0 °F 79% 29.88 in 10.0 mi Calm Calm - N/A   Overcast
6:54 AM 75.9 °F - 72.0 °F 87% 29.88 in 10.0 mi Calm Calm - N/A   Overcast
7:54 AM 78.1 °F - 73.0 °F 84% 29.89 in 10.0 mi Calm Calm - N/A   Overcast
8:54 AM 80.1 °F 83.8 °F 72.0 °F 76% 29.90 in 10.0 mi West 3.5 mph - N/A   Overcast
9:54 AM 82.9 °F 87.0 °F 70.0 °F 65% 29.91 in 10.0 mi NNW 3.5 mph - N/A   Overcast
10:54 AM 84.0 °F 87.8 °F 69.1 °F 61% 29.91 in 10.0 mi Calm Calm - N/A   Overcast
11:54 AM 84.0 °F 89.0 °F 71.1 °F 65% 29.91 in 10.0 mi West 9.2 mph - N/A   Overcast
12:11 PM 82.4 °F 86.3 °F 69.8 °F 66% 29.93 in 10.0 mi WNW 8.1 mph - N/A   Overcast
12:38 PM 82.4 °F 87.2 °F 71.6 °F 70% 29.93 in 10.0 mi West 9.2 mph - N/A   Overcast
12:54 PM 84.0 °F 89.0 °F 71.1 °F 65% 29.92 in 10.0 mi WNW 10.4 mph - N/A   Overcast
1:01 PM 84.2 °F 89.6 °F 71.6 °F 66% 29.93 in 10.0 mi WNW 11.5 mph - N/A   Overcast
1:37 PM 84.2 °F 88.4 °F 69.8 °F 62% 29.92 in 10.0 mi NNW 6.9 mph - N/A   Overcast
1:54 PM 84.0 °F 88.4 °F 70.0 °F 63% 29.91 in 10.0 mi North 9.2 mph - N/A   Overcast
2:22 PM 84.2 °F 88.4 °F 69.8 °F 62% 29.93 in 10.0 mi NNE 11.5 mph - N/A   Overcast
2:54 PM 84.0 °F 89.0 °F 71.1 °F 65% 29.91 in 10.0 mi North 9.2 mph - N/A   Overcast
3:54 PM 82.9 °F 87.5 °F 71.1 °F 67% 29.90 in 10.0 mi NW 9.2 mph - 0.00 in Rain Light Rain
4:47 PM 82.4 °F 87.2 °F 71.6 °F 70% 29.90 in 10.0 mi North 6.9 mph - 0.00 in   Mostly Cloudy
4:54 PM 82.9 °F 87.5 °F 71.1 °F 67% 29.89 in 10.0 mi NNW 9.2 mph - 0.00 in   Mostly Cloudy
5:54 PM 84.0 °F 88.4 °F 70.0 °F 63% 29.89 in 10.0 mi North 9.2 mph - N/A   Mostly Cloudy
6:36 PM 84.2 °F 88.4 °F 69.8 °F 62% 29.90 in 10.0 mi North 10.4 mph - N/A   Scattered Clouds
6:54 PM 82.0 °F 85.9 °F 70.0 °F 67% 29.90 in 10.0 mi NNW 9.2 mph - N/A   Scattered Clouds
7:54 PM 81.0 °F 84.9 °F 71.1 °F 72% 29.90 in 10.0 mi North 8.1 mph - N/A   Scattered Clouds
8:54 PM 79.0 °F - 70.0 °F 74% 29.92 in 10.0 mi North 12.7 mph - N/A   Scattered Clouds
9:29 PM 78.8 °F - 69.8 °F 74% 29.95 in 10.0 mi NNE 12.7 mph - N/A   Mostly Cloudy
9:54 PM 79.0 °F - 68.0 °F 69% 29.94 in 10.0 mi NNE 11.5 mph - N/A   Mostly Cloudy
10:12 PM 78.8 °F - 68.0 °F 69% 29.97 in 10.0 mi NNE 8.1 mph - N/A   Mostly Cloudy
10:54 PM 78.1 °F - 66.9 °F 68% 29.97 in 10.0 mi North 8.1 mph - N/A   Mostly Cloudy
11:54 PM 75.9 °F - 66.0 °F 71% 29.96 in 10.0 mi NNE 9.2 mph - N/A   Scattered Clouds